TimeCST,TemperatureF,Dew PointF,Humidity,Sea Level PressureIn,VisibilityMPH,Wind Direction,Wind SpeedMPH,Gust SpeedMPH,PrecipitationIn,Events,Conditions,WindDirDegrees,DateUTC
12:53 AM,-5.1,-11.0,76,30.32,10.0,WNW,12.7,18.4,N/A,,Scattered Clouds,290,2013-02-01 06:53:00
1:38 AM,-5.8,-11.2,77,30.24,10.0,West,16.1,-,N/A,,Partly Cloudy,280,2013-02-01 07:38:00
1:51 AM,-5.8,-11.2,77,30.25,9.0,West,13.8,-,N/A,,Mostly Cloudy,280,2013-02-01 07:51:00
1:53 AM,-5.1,-11.0,76,30.35,9.0,West,13.8,-,N/A,,Mostly Cloudy,280,2013-02-01 07:53:00
2:53 AM,-6.0,-11.9,75,30.35,10.0,WNW,16.1,-,N/A,,Overcast,290,2013-02-01 08:53:00
3:53 AM,-7.1,-13.0,75,30.36,10.0,WNW,11.5,-,N/A,,Scattered Clouds,290,2013-02-01 09:53:00
4:53 AM,-8.0,-14.1,75,30.38,10.0,West,6.9,-,N/A,,Clear,270,2013-02-01 10:53:00
5:53 AM,-8.0,-14.1,75,30.39,10.0,West,9.2,-,N/A,,Clear,270,2013-02-01 11:53:00
6:53 AM,-9.0,-15.0,75,30.40,10.0,West,9.2,-,N/A,,Clear,280,2013-02-01 12:53:00
7:53 AM,-9.0,-15.0,75,30.40,10.0,NW,8.1,-,N/A,,Clear,310,2013-02-01 13:53:00
8:53 AM,-7.1,-14.1,72,30.42,10.0,WNW,10.4,-,N/A,,Clear,290,2013-02-01 14:53:00
9:53 AM,-6.0,-14.1,68,30.41,10.0,WNW,6.9,-,N/A,,Clear,300,2013-02-01 15:53:00
10:53 AM,-4.0,-11.9,69,30.41,10.0,West,10.4,-,N/A,,Clear,260,2013-02-01 16:53:00
11:53 AM,-2.9,-11.0,68,30.40,10.0,WSW,9.2,-,N/A,,Clear,240,2013-02-01 17:53:00
12:53 PM,-0.9,-9.0,69,30.37,10.0,WSW,13.8,-,N/A,,Clear,240,2013-02-01 18:53:00
1:53 PM,-0.0,-8.0,69,30.34,10.0,SW,5.8,-,N/A,,Clear,220,2013-02-01 19:53:00
2:53 PM,1.9,-7.1,66,30.32,10.0,SW,11.5,-,N/A,,Clear,230,2013-02-01 20:53:00
3:53 PM,1.9,-6.0,69,30.30,10.0,SW,12.7,-,N/A,,Clear,220,2013-02-01 21:53:00
4:53 PM,3.0,-5.1,69,30.29,10.0,SSW,10.4,-,N/A,,Mostly Cloudy,210,2013-02-01 22:53:00
5:33 PM,3.2,-4.0,72,30.18,10.0,SSW,15.0,-,N/A,,Overcast,210,2013-02-01 23:33:00
5:53 PM,3.0,-4.0,73,30.26,10.0,SSW,13.8,-,N/A,,Overcast,200,2013-02-01 23:53:00
6:24 PM,3.2,-2.2,78,30.15,10.0,SSW,11.5,-,N/A,,Overcast,200,2013-02-02 00:24:00
6:53 PM,3.9,-2.0,76,30.25,10.0,South,11.5,-,N/A,,Overcast,190,2013-02-02 00:53:00
7:38 PM,5.0,-0.4,78,30.14,1.8,South,11.5,-,N/A,,Haze,180,2013-02-02 01:38:00
7:53 PM,6.1,1.0,80,30.22,1.5,South,10.4,-,N/A,,Haze,190,2013-02-02 01:53:00
8:04 PM,6.8,1.4,79,30.13,2.0,SSW,11.5,-,N/A,,Haze,200,2013-02-02 02:04:00
8:12 PM,6.8,1.4,79,30.12,2.5,SSW,12.7,-,N/A,,Overcast,200,2013-02-02 02:12:00
8:24 PM,6.8,1.4,79,30.12,1.8,South,10.4,-,0.01,,Overcast,190,2013-02-02 02:24:00
8:50 PM,6.8,3.2,85,30.12,2.0,South,8.1,-,0.02,,Overcast,180,2013-02-02 02:50:00
8:53 PM,7.0,3.0,84,30.21,2.0,South,8.1,-,0.02,,Overcast,180,2013-02-02 02:53:00
8:56 PM,6.8,3.2,85,30.12,1.8,South,8.1,-,N/A,,Overcast,190,2013-02-02 02:56:00
9:13 PM,6.8,3.2,85,30.12,2.5,South,5.8,-,0.01,,Overcast,180,2013-02-02 03:13:00
9:28 PM,8.6,3.2,79,30.11,3.0,South,6.9,-,0.01,,Overcast,180,2013-02-02 03:28:00
9:31 PM,8.6,3.2,79,30.11,2.5,South,6.9,-,0.01,,Overcast,180,2013-02-02 03:31:00
9:44 PM,8.6,5.0,85,30.11,1.2,South,6.9,-,0.01,,Overcast,180,2013-02-02 03:44:00
9:53 PM,8.1,5.0,87,30.20,1.2,South,6.9,-,0.02,,Overcast,180,2013-02-02 03:53:00
10:02 PM,8.6,5.0,85,30.11,0.8,South,8.1,-,N/A,,Mist,180,2013-02-02 04:02:00
10:21 PM,8.6,5.0,85,30.10,1.2,South,9.2,-,0.02,,Overcast,170,2013-02-02 04:21:00
10:53 PM,9.0,6.1,88,30.17,2.5,South,9.2,-,0.04,,Overcast,180,2013-02-02 04:53:00
11:02 PM,8.6,6.8,92,30.08,1.2,South,8.1,-,N/A,,Overcast,180,2013-02-02 05:02:00
11:09 PM,8.6,6.8,92,30.07,3.0,South,9.2,-,0.01,,Overcast,180,2013-02-02 05:09:00
11:18 PM,8.6,6.8,92,30.07,6.0,South,10.4,-,0.01,,Overcast,170,2013-02-02 05:18:00
11:39 PM,10.4,6.8,85,30.05,1.8,South,10.4,-,0.01,,Overcast,180,2013-02-02 05:39:00
11:53 PM,10.0,7.0,87,30.13,1.2,South,11.5,-,0.02,,Overcast,180,2013-02-02 05:53:00